Weather History for Albertville, AL

Change the Weather History Date:

Saturday, November 9, 2013

  Actual Average (KGAD) Record (KGAD)
Temperature  
Mean Temperature 49 °F -  
Max Temperature 59 °F 62 °F 82 °F (1942)
Min Temperature 39 °F 40 °F 22 °F (1951)
Degree Days  
Heating Degree Days 16    
Moisture  
Dew Point 6 °F    
Average Humidity 22    
Maximum Humidity 50    
Minimum Humidity 4    
Precipitation  
Precipitation 0.00 in - - ()
Sea Level Pressure  
Sea Level Pressure 30.27 in    
Wind  
Wind Speed 3 mph (SE)    
Max Wind Speed 9 mph    
Max Gust Speed -    
Visibility 10 miles    
Events      
Averages and records for this station are not official NWS values.
T = Trace of Precipitation, MM = Missing Value Source: NWS Daily Summary

Daily Weather History Graph

Daily Weather History Graph

Search for Another Location

Airport:

Trip Planner

Search our weather history database for the weather conditions in past years. The results will help you decide how hot, cold, wet, or windy it might be!

Date:

Astronomy

Nov. 09, 2013 Rise Set
Actual Time 6:12 AM CST 4:44 PM CST
Civil Twilight 5:46 AM CST 5:11 PM CST
Nautical Twilight 5:16 AM CST 5:41 PM CST
Astronomical Twilight 4:46 AM CST 6:10 PM CST
Moon 11:51 AM CST (11/9) 11:10 PM CST (11/9)
Length of Visible Light 11h 25m
Length of Day
10h 32m
Waxing Crescent, 44% of the Moon is Illuminated
Nov 9
Waxing Crescent
Nov 9
First Quarter
Nov 17
Full
Nov 25
Last Quarter
Dec 2
New

Hourly Weather History & Observations

Time (CST) Temp. Windchill Dew Point Humidity Pressure Visibility Wind Dir Wind Speed Gust Speed Precip Events Conditions
12:15 AM 42.8 °F - 6.8 °F 23% 30.26 in 10.0 mi Calm Calm - N/A   Clear
12:35 AM 41.0 °F 39.0 °F 14.0 °F 33% 30.27 in 10.0 mi ESE 3.5 mph - N/A   Clear
12:55 AM 42.8 °F - 3.2 °F 19% 30.26 in 10.0 mi Calm Calm - N/A   Clear
1:15 AM 41.0 °F 39.0 °F 8.6 °F 26% 30.25 in 10.0 mi ESE 3.5 mph - N/A   Clear
1:35 AM 42.8 °F - 6.8 °F 23% 30.25 in 10.0 mi Calm Calm - N/A   Clear
1:55 AM 41.0 °F 38.0 °F 12.2 °F 31% 30.25 in 10.0 mi East 4.6 mph - N/A   Clear
2:15 AM 41.0 °F 39.0 °F 10.4 °F 29% 30.26 in 10.0 mi NNE 3.5 mph - N/A   Scattered Clouds
2:35 AM 39.2 °F 35.9 °F 8.6 °F 28% 30.26 in 10.0 mi East 4.6 mph - N/A   Clear
2:55 AM 39.2 °F 37.0 °F 8.6 °F 28% 30.26 in 10.0 mi East 3.5 mph - N/A   Clear
3:15 AM 41.0 °F - 1.4 °F 19% 30.26 in 10.0 mi Calm Calm - N/A   Clear
3:35 AM 41.0 °F 39.0 °F -0.4 °F 18% 30.25 in 10.0 mi East 3.5 mph - N/A   Clear
3:55 AM 39.2 °F 37.0 °F 3.2 °F 22% 30.26 in 10.0 mi East 3.5 mph - N/A   Scattered Clouds
4:15 AM 41.0 °F 39.0 °F -4.0 °F 15% 30.26 in 10.0 mi ESE 3.5 mph - N/A   Scattered Clouds
4:35 AM 41.0 °F 38.0 °F -0.4 °F 18% 30.27 in 10.0 mi SE 4.6 mph - N/A   Clear
4:55 AM 41.0 °F 37.1 °F -0.4 °F 18% 30.28 in 10.0 mi ESE 5.8 mph - N/A   Clear
5:15 AM 41.0 °F 38.0 °F -2.2 °F 16% 30.27 in 10.0 mi ESE 4.6 mph - N/A   Clear
5:35 AM 42.8 °F 39.3 °F -2.2 °F 15% 30.28 in 10.0 mi SE 5.8 mph - N/A   Clear
5:55 AM 42.8 °F 40.1 °F 1.4 °F 18% 30.28 in 10.0 mi SE 4.6 mph - N/A   Clear
6:15 AM 42.8 °F 40.1 °F -0.4 °F 16% 30.28 in 10.0 mi SE 4.6 mph - N/A   Clear
6:35 AM 42.8 °F 41.1 °F 1.4 °F 18% 30.29 in 10.0 mi ESE 3.5 mph - N/A   Clear
6:55 AM 42.8 °F 40.1 °F 1.4 °F 18% 30.29 in 10.0 mi East 4.6 mph - N/A   Clear
7:15 AM 42.8 °F 41.1 °F -0.4 °F 16% 30.31 in 10.0 mi ESE 3.5 mph - N/A   Clear
7:35 AM 44.6 °F 43.1 °F 1.4 °F 17% 30.31 in 10.0 mi ESE 3.5 mph - N/A   Clear
7:55 AM 44.6 °F 43.1 °F 3.2 °F 18% 30.31 in 10.0 mi SE 3.5 mph - N/A   Clear
8:15 AM 50.0 °F - 3.2 °F 15% 30.32 in 10.0 mi Calm Calm - N/A   Clear
8:35 AM 48.2 °F - 3.2 °F 16% 30.32 in 10.0 mi SSE 3.5 mph - N/A   Clear
8:55 AM 50.0 °F - -0.4 °F 13% 30.31 in 10.0 mi SSE 3.5 mph - N/A   Clear
9:15 AM 51.8 °F - -7.6 °F 8% 30.31 in 10.0 mi South 5.8 mph - N/A   Clear
9:35 AM 53.6 °F - -11.2 °F 7% 30.32 in 10.0 mi SE 3.5 mph - N/A   Clear
9:55 AM 55.4 °F - -31.0 °F 4% 30.32 in 10.0 mi SSE 6.9 mph - N/A   Clear
10:15 AM 55.4 °F - -34.6 °F 4% 30.32 in 10.0 mi South 9.2 mph - N/A   Clear
10:35 AM 59.0 °F - - N/A% 30.31 in 10.0 mi South 8.1 mph - N/A   Clear
10:55 AM 59.0 °F - - N/A% 30.31 in 10.0 mi SSW 9.2 mph - N/A   Clear
11:15 AM 59.0 °F - - N/A% 30.30 in 10.0 mi SSE 6.9 mph - N/A   Clear
11:35 AM 59.0 °F - - N/A% 30.29 in 10.0 mi SSE 4.6 mph - N/A   Clear
11:55 AM 59.0 °F - - N/A% 30.28 in 10.0 mi South 4.6 mph - N/A   Clear
12:15 PM 59.0 °F - - N/A% 30.28 in 10.0 mi SSW 5.8 mph - N/A   Clear
12:35 PM 57.2 °F - - N/A% 30.28 in 10.0 mi SSE 3.5 mph - N/A   Clear
12:55 PM 55.4 °F - -16.6 °F 5% 30.26 in 10.0 mi SSE 5.8 mph - N/A   Clear
1:15 PM 55.4 °F - -13.0 °F 6% 30.24 in 10.0 mi SE 5.8 mph - N/A   Scattered Clouds
1:35 PM 55.4 °F - -13.0 °F 6% 30.20 in 10.0 mi SE 8.1 mph - N/A   Scattered Clouds
1:55 PM 55.4 °F - -14.8 °F 5% 30.24 in 10.0 mi South 5.8 mph - N/A   Clear
2:15 PM 55.4 °F - -9.4 °F 7% 30.24 in 10.0 mi SSW 4.6 mph - N/A   Clear
2:35 PM 55.4 °F - -5.8 °F 8% 30.24 in 10.0 mi South 5.8 mph - N/A   Clear
2:55 PM 55.4 °F - -4.0 °F 9% 30.24 in 10.0 mi SE 3.5 mph - N/A   Clear
3:15 PM 55.4 °F - 3.2 °F 12% 30.22 in 10.0 mi East 3.5 mph - N/A   Scattered Clouds
3:35 PM 55.4 °F - 5.0 °F 13% 30.19 in 10.0 mi ENE 5.8 mph - N/A   Overcast
3:55 PM 55.4 °F - 3.2 °F 12% 30.24 in 10.0 mi South 3.5 mph - N/A   Mostly Cloudy
4:15 PM 53.6 °F - 8.6 °F 16% 30.25 in 10.0 mi South 3.5 mph - N/A   Scattered Clouds
4:35 PM 53.6 °F - 12.2 °F 19% 30.24 in 10.0 mi SSE 3.5 mph - N/A   Clear
4:55 PM 51.8 °F - 14.0 °F 22% 30.24 in 10.0 mi SE 3.5 mph - N/A   Clear
5:15 PM 51.8 °F - 14.0 °F 22% 30.24 in 10.0 mi East 3.5 mph - N/A   Clear
5:35 PM 50.0 °F - 19.4 °F 30% 30.24 in 10.0 mi East 3.5 mph - N/A   Clear
5:55 PM 51.8 °F - 17.6 °F 26% 30.26 in 10.0 mi Calm Calm - N/A   Clear
6:15 PM 51.8 °F - 15.8 °F 24% 30.27 in 10.0 mi SSE 4.6 mph - N/A   Clear
6:35 PM 51.8 °F - 15.8 °F 24% 30.27 in 10.0 mi SSE 5.8 mph - N/A   Mostly Cloudy
6:55 PM 51.8 °F - 17.6 °F 26% 30.28 in 10.0 mi Calm Calm - N/A   Overcast
7:15 PM 50.0 °F - 19.4 °F 30% 30.27 in 10.0 mi SE 3.5 mph - N/A   Overcast
7:35 PM 50.0 °F - 19.4 °F 30% 30.27 in 10.0 mi SE 3.5 mph - N/A   Overcast
8:15 PM 50.0 °F - 23.0 °F 35% 30.26 in 10.0 mi East 3.5 mph - N/A   Overcast
8:35 PM 48.2 °F - 23.0 °F 37% 30.27 in 10.0 mi SSE 3.5 mph - N/A   Overcast
8:55 PM 50.0 °F - 19.4 °F 30% 30.26 in 10.0 mi SE 4.6 mph - N/A   Overcast
9:15 PM 48.2 °F - 23.0 °F 37% 30.27 in 10.0 mi SSE 5.8 mph - N/A   Overcast
9:35 PM 50.0 °F - 21.2 °F 32% 30.27 in 10.0 mi SE 4.6 mph - N/A   Overcast
9:55 PM 46.4 °F - 26.6 °F 46% 30.27 in 10.0 mi Calm Calm - N/A   Overcast
10:15 PM 48.2 °F - 23.0 °F 37% 30.27 in 10.0 mi SE 3.5 mph - N/A   Overcast
10:35 PM 46.4 °F 44.3 °F 23.0 °F 40% 30.26 in 10.0 mi SSE 4.6 mph - N/A   Scattered Clouds
10:55 PM 46.4 °F - 23.0 °F 40% 30.26 in 10.0 mi Calm Calm - N/A   Mostly Cloudy
11:15 PM 46.4 °F - 28.4 °F 50% 30.26 in 10.0 mi Calm Calm - N/A   Overcast
11:35 PM 46.4 °F 44.3 °F 23.0 °F 40% 30.26 in 10.0 mi SE 4.6 mph - N/A   Overcast
11:55 PM 48.2 °F - 23.0 °F 37% 30.25 in 10.0 mi Calm Calm - N/A   Overcast